Starlink 32159

operational
NORAD ID: 60293 Int'l Des: 2024-132 Owner: SPXS Country: US Constellation: starlink
LEOCIRCULAR

About Starlink 32159

Description loading...

Live Position

Loading 3D Globe...

Upcoming Passes

Altitude History

Altitude vs Time

uPlot chart will show altitude changes over time

Two-Line Element Set

1 60293U 24132R 25312.13301130 -.00009115 00000-0 -29589-3 0 9991
2 60293 53.1601 256.7519 0001517 113.0937 247.0224 15.30211387 72956
Epoch: Nov 8, 2025 • Age: 49 hours

Current Status

Altitude 477.3 km
Velocity 7.63 km/s
Sub-Earth Point -8.38°S, 45.33°W
Launch Date Jul 28, 2024
Age 1.2 years
Type internet

Technical Details

Classification Payload
Mass 730.00 kg
Dry Mass 700.00 kg
Total Mass 730.00 kg
Length 0.30 m
Diameter 4.10 m
Span 29.00 m
Shape Box + pan
Manufacturer SPXS
Bus Type Starlink V2M
Phase Status In Orbit
Owner/State SPXS/US

Large Constellations

Loading constellations...